Date,TemperatureHighF,TemperatureAvgF,TemperatureLowF,DewpointHighF,DewpointAvgF,DewpointLowF,HumidityHigh,HumidityAvg,HumidityLow,PressureMaxIn,PressureMinIn,WindSpeedMaxMPH,WindSpeedAvgMPH,GustSpeedMaxMPH,PrecipitationSumIn
2013-2-5,69.8,69.3,68.9,54.4,53.7,53.2,58,58,57,29.90,29.90,1,0,2,0.00
2013-2-6,88.3,74.9,65.7,61.1,55.0,47.5,67,51,31,29.94,29.83,2,0,7,0.00
2013-2-7,89.6,74.6,66.0,59.7,57.0,55.0,71,56,31,29.93,29.83,2,0,5,0.02
2013-2-8,92.8,79.0,65.7,59.7,57.9,54.0,67,50,31,29.94,29.83,3,1,6,0.00
2013-2-9,92.8,74.9,65.1,59.5,56.8,52.6,70,55,27,29.95,29.85,5,0,13,0.25
2013-2-10,90.0,71.8,62.8,59.5,56.6,52.8,75,60,35,29.97,29.86,16,4,28,0.65
2013-2-11,81.1,68.9,60.4,61.3,55.1,48.7,79,63,37,29.96,29.84,17,8,30,0.00
2013-2-12,77.2,68.7,59.4,60.6,55.6,48.6,77,64,43,29.95,29.85,16,7,27,0.00
2013-2-13,81.7,69.9,63.3,62.3,61.2,56.0,83,74,46,29.91,29.80,12,6,18,0.00
2013-2-14,82.9,69.5,63.5,61.2,59.3,56.6,83,71,44,29.94,29.82,15,6,24,0.00
2013-2-15,85.8,73.0,63.0,60.2,50.9,31.8,79,51,17,29.92,29.79,15,8,23,0.00
2013-2-16,82.6,71.1,64.9,60.4,52.9,37.1,79,58,22,29.96,29.82,16,10,24,0.00
2013-2-17,78.1,68.9,63.5,58.7,56.3,53.6,77,65,48,29.97,29.84,21,10,31,0.00
2013-2-18,77.5,69.9,63.9,61.0,58.4,53.1,80,67,50,29.93,29.80,19,9,34,0.00
2013-2-19,79.2,68.6,62.2,61.3,58.0,52.5,83,70,49,29.92,29.81,18,10,27,0.00
2013-2-20,80.4,70.4,63.0,62.5,58.1,51.8,80,66,44,29.89,29.76,17,9,27,0.00
2013-2-21,78.8,69.9,64.2,63.0,59.8,56.5,82,71,50,29.89,29.79,17,10,30,0.00
2013-2-22,82.6,70.9,62.2,64.0,59.3,54.2,83,68,51,29.93,29.81,17,9,26,0.00
2013-2-23,73.4,69.1,67.5,62.7,61.0,59.9,79,75,69,29.89,29.80,14,8,23,0.00
2013-2-24,82.0,73.2,66.6,63.7,61.6,58.6,82,68,51,30.60,29.78,17,9,27,0.00
2013-2-25,82.9,71.3,64.9,66.5,62.7,58.4,91,76,52,29.85,29.75,12,5,15,0.25
2013-2-26,83.5,75.1,61.3,65.2,63.6,58.4,91,69,52,29.87,29.78,18,8,28,0.01
2013-2-27,80.1,71.0,64.9,64.0,61.8,58.8,85,73,54,29.90,29.80,17,9,27,0.00
2013-2-28,81.3,71.0,64.0,63.8,59.5,56.6,82,68,50,29.89,29.79,18,9,29,0.00
2013-3-1,76.5,68.0,65.1,64.4,61.7,59.7,85,81,64,29.89,29.78,14,8,21,0.01
2013-3-2,75.0,67.8,64.0,60.3,58.6,55.3,84,73,55,29.94,29.82,19,9,32,0.01
2013-3-3,70.5,63.3,58.8,58.5,55.1,52.3,83,75,59,30.01,29.91,26,14,36,0.07
2013-3-4,73.8,65.5,59.5,60.2,57.7,54.1,84,76,61,29.99,29.86,21,11,33,0.02
2013-3-5,82.4,70.6,64.9,64.0,61.9,59.7,87,75,54,29.96,29.84,17,9,27,0.00
2013-3-6,78.6,70.7,66.9,64.6,63.3,61.1,86,78,62,29.98,29.87,16,8,28,0.00
2013-3-7,77.7,71.1,66.7,63.7,62.7,61.6,87,75,62,29.97,29.85,21,11,34,0.02
2013-3-8,78.4,71.1,66.7,64.7,62.9,60.6,86,76,62,29.94,29.83,24,11,34,0.06
2013-3-9,80.8,71.0,65.5,64.2,61.9,59.5,85,74,54,29.95,29.83,17,10,26,0.00
2013-3-10,81.9,71.2,65.7,64.6,61.8,59.5,86,73,53,29.90,29.79,19,9,26,0.00
2013-3-11,83.1,72.8,64.9,64.6,61.5,58.6,83,69,49,29.90,29.78,17,8,27,0.00
2013-3-12,81.9,72.2,66.4,64.3,62.5,59.7,83,72,53,29.93,29.82,18,8,29,0.00
2013-3-13,77.4,69.6,64.9,62.6,60.4,57.4,85,73,59,29.95,29.84,18,10,30,0.01
2013-3-14,73.9,67.4,63.7,60.2,57.7,53.7,83,71,57,29.94,29.85,17,10,31,0.02
2013-3-15,73.8,66.8,63.3,60.8,56.5,51.2,81,70,58,29.94,29.83,16,10,26,0.00
2013-3-16,80.2,70.6,63.9,60.3,56.0,48.7,77,61,47,29.92,29.80,18,10,30,0.00
2013-3-17,86.9,72.3,63.3,64.1,60.1,54.9,86,67,39,29.94,29.83,14,7,20,0.00
2013-3-18,86.4,74.0,64.0,64.4,61.6,57.2,83,67,39,29.94,29.84,14,6,23,0.00
2013-3-19,86.2,74.3,64.2,65.8,62.2,57.4,83,67,44,29.93,29.81,15,6,24,0.00
2013-3-20,88.9,74.7,61.7,66.0,60.5,53.6,84,64,33,29.91,29.79,12,3,17,0.00
2013-3-21,91.2,73.4,64.9,68.1,58.8,24.9,92,69,10,29.91,29.78,14,3,21,0.34
2013-3-22,89.4,74.7,60.6,67.7,57.1,33.9,89,60,18,29.91,29.82,13,4,18,0.00
2013-3-29,73.6,67.5,65.3,58.9,54.7,51.3,68,64,54,29.99,29.91,19,9,27,0.12
2013-3-30,82.6,71.3,63.5,63.3,59.2,51.0,87,67,45,29.98,29.87,18,10,28,0.00
2013-3-31,82.2,72.3,66.6,65.9,63.9,60.9,87,75,56,29.94,27.76,17,9,28,0.00
2013-4-1,82.2,72.8,66.6,67.7,64.8,61.8,88,76,58,29.97,29.84,21,8,32,0.14
2013-4-2,80.1,72.0,67.3,66.0,63.6,61.8,89,75,55,29.97,29.88,17,8,26,0.00
2013-4-3,84.6,72.4,67.6,65.2,62.7,59.6,85,72,50,29.96,29.85,17,7,25,0.00
2013-4-4,86.9,73.8,66.0,68.6,63.2,59.3,94,71,43,29.96,29.87,13,5,21,0.96
2013-4-5,85.8,73.3,68.5,66.2,63.5,59.7,83,72,49,29.98,29.87,15,8,24,0.00
2013-4-6,83.3,73.7,66.4,63.2,60.8,58.2,83,66,47,29.99,29.88,17,8,26,0.00
2013-5-3,84.9,74.2,67.5,67.6,66.0,63.6,94,77,53,29.97,29.84,11,4,17,0.00
2013-5-4,78.1,71.4,67.5,64.8,59.7,55.3,82,67,49,29.97,29.87,16,8,26,0.05
2013-5-5,85.5,72.4,64.6,66.4,60.0,53.8,93,67,43,30.02,29.90,14,6,24,0.19
2013-5-6,87.1,73.9,64.8,68.1,61.4,51.9,93,67,40,30.02,29.91,15,4,21,0.01
2013-5-7,82.8,72.4,64.4,59.3,54.1,48.7,70,54,37,30.02,29.91,13,7,26,0.00
2013-5-8,84.2,72.1,60.1,62.6,52.6,31.6,80,55,17,30.02,29.92,14,7,23,0.00
2013-5-9,86.4,74.7,65.5,67.9,63.6,57.1,85,70,43,30.03,29.92,13,4,24,0.00
2013-5-10,71.8,68.7,67.5,64.6,63.3,62.3,87,83,77,30.01,29.91,12,6,18,0.00
2013-5-21,83.7,71.6,64.9,69.3,65.2,62.7,96,82,51,29.93,29.83,11,4,20,0.18
2013-5-22,82.9,70.2,64.4,68.3,65.6,62.6,96,86,58,29.93,29.85,6,2,8,0.15
2013-5-23,80.4,71.1,64.6,68.1,65.2,61.9,97,83,60,29.94,29.85,11,4,14,0.02
2013-5-24,85.5,70.3,64.9,69.4,65.8,62.9,100,87,47,29.96,29.88,8,2,11,2.13
2013-5-25,80.4,71.9,67.1,68.4,64.7,62.8,88,79,60,29.97,29.89,11,6,19,0.01
2013-5-26,85.3,73.7,65.8,69.5,64.9,61.5,95,76,51,29.97,29.88,13,4,17,0.00
2013-5-27,85.1,72.0,67.6,67.5,65.3,61.9,94,81,47,29.96,29.86,14,4,21,0.00
2013-5-28,86.7,72.3,65.1,69.4,64.8,62.9,97,79,46,29.96,29.85,15,5,23,0.86
2013-7-8,82.0,71.8,67.1,65.6,63.3,61.4,85,75,57,29.97,29.87,9,6,16,0.00
2013-7-9,82.0,73.7,66.7,65.3,64.2,61.9,85,73,57,29.97,29.89,11,6,21,0.00
2013-7-10,86.0,74.0,67.5,68.9,65.4,63.7,94,76,48,29.95,29.85,9,5,14,0.06
2013-7-11,75.0,69.1,64.0,66.3,64.4,61.5,96,85,71,29.97,29.88,8,4,14,0.01
2013-7-12,82.0,71.3,66.7,68.3,65.1,61.6,96,82,60,29.96,29.89,9,3,14,0.08
2013-7-13,84.4,73.1,61.5,70.0,64.0,59.8,95,75,50,29.96,29.85,13,4,20,0.00
2013-7-14,83.7,71.8,64.8,65.7,63.3,58.8,83,75,54,29.91,29.83,13,7,21,0.00
2013-7-15,84.2,73.5,65.5,66.2,63.0,59.0,83,70,53,29.91,29.81,15,8,25,0.00
2013-7-16,82.8,74.2,66.6,65.6,63.9,60.9,83,71,55,29.93,29.84,15,8,23,0.00
2013-7-19,78.8,70.3,65.5,66.0,64.6,62.9,96,82,65,29.96,29.88,11,5,18,0.05
2013-7-20,82.9,73.5,68.0,70.3,64.5,63.0,85,74,54,29.93,29.83,11,6,17,0.00
2013-7-21,84.2,72.4,65.7,66.7,64.5,62.4,96,77,48,29.96,29.84,13,4,16,0.58
2013-7-22,81.1,71.4,65.5,65.5,63.7,61.4,97,78,55,29.95,29.88,10,6,15,0.06
2013-7-23,82.2,72.4,67.8,66.4,64.7,62.5,87,77,58,29.94,29.85,13,8,21,0.00
2013-7-24,80.2,72.2,66.0,67.4,65.2,62.7,89,79,64,29.89,29.81,12,6,20,0.00
2013-7-25,82.8,71.8,67.5,71.2,66.5,64.2,97,84,62,29.96,29.84,15,6,25,0.07
2013-7-26,87.4,73.6,68.7,65.5,63.7,58.3,86,72,39,29.98,29.90,17,8,27,0.00
2013-8-9,83.5,70.6,60.3,66.2,62.8,58.4,95,78,49,29.93,29.86,11,3,20,0.01
2013-8-10,80.8,71.8,66.7,64.3,62.7,60.9,86,74,56,29.94,29.87,13,6,19,0.00
2013-8-11,84.4,71.5,61.5,68.2,64.4,58.6,100,80,47,29.95,29.84,12,3,20,0.06
2013-8-12,84.6,71.3,66.2,68.0,66.0,62.7,100,85,48,29.92,29.84,8,3,12,0.08
2013-8-13,83.5,72.2,63.9,68.8,66.1,62.7,97,83,54,29.91,29.81,9,3,16,0.02
2013-8-14,83.7,74.0,63.9,70.7,67.1,61.8,95,80,57,29.89,29.80,8,3,14,0.01
2013-8-15,88.3,72.0,68.4,72.0,66.7,64.0,100,84,46,29.92,29.82,8,4,14,0.00
2013-8-16,84.2,72.7,66.4,69.7,65.4,63.0,97,79,53,29.96,29.83,11,4,19,0.44
2013-8-17,82.4,70.5,64.9,69.3,65.1,62.0,96,84,56,29.95,29.85,10,3,17,0.14
2013-8-18,84.4,72.1,65.3,70.0,65.3,61.4,95,80,53,29.97,29.86,12,5,21,0.01
2013-8-19,86.0,73.5,66.9,67.4,63.9,60.3,86,73,49,29.92,29.83,14,6,24,0.06
2013-8-20,86.4,72.7,64.0,66.7,63.3,60.4,90,73,48,29.92,29.82,14,6,24,0.00
2013-8-21,78.1,70.8,68.2,66.6,63.2,61.4,94,77,65,29.93,29.86,13,6,20,0.02
2013-9-12,86.2,71.9,64.8,69.4,65.5,61.6,100,82,44,29.92,29.82,9,2,15,0.01
2013-9-13,86.2,71.0,65.3,69.5,65.3,61.9,97,84,48,29.87,29.76,9,2,17,1.19
2013-9-14,85.6,71.7,65.8,70.1,66.2,61.5,97,84,54,29.90,29.79,8,3,14,0.44
2013-9-15,86.7,72.6,66.2,70.9,66.2,63.4,97,82,50,29.92,29.81,10,3,14,1.75
2013-9-16,83.8,71.6,63.9,69.7,66.0,62.1,96,84,60,29.92,29.79,9,3,13,0.53
2013-9-17,85.1,71.4,63.3,70.0,65.2,60.4,97,82,49,29.91,29.81,7,3,10,0.01
2013-9-18,84.4,68.4,65.5,70.3,66.3,65.2,100,94,58,29.96,29.82,8,1,11,1.61
2013-9-19,83.1,71.9,65.3,69.4,66.6,63.2,100,84,60,29.96,29.85,9,3,14,0.01
2013-12-9,82.0,73.0,63.3,65.4,62.0,58.4,85,70,49,29.96,29.84,12,5,17,0.00
2013-12-10,86.4,71.5,61.5,66.1,60.2,54.0,85,69,41,29.97,29.87,9,5,15,0.00
2013-12-11,81.1,72.2,64.8,66.0,63.5,59.5,85,75,58,29.96,29.84,12,7,20,0.00
2013-12-12,80.4,70.8,67.1,67.2,64.9,62.8,89,82,63,29.96,29.85,12,8,20,0.12
2013-12-13,79.0,70.8,66.0,64.9,62.0,59.8,88,75,53,29.91,29.79,14,8,21,0.00
2013-12-14,76.3,69.5,64.6,65.6,62.9,58.6,86,80,68,29.90,29.81,14,6,19,0.00
2013-12-15,78.1,68.6,63.7,66.6,63.1,60.1,88,83,66,29.92,29.82,14,6,24,0.21
2013-12-16,68.0,66.5,65.3,63.2,61.9,58.4,88,85,75,29.94,29.84,12,5,19,0.01